[[{"header":{"parameterUnit":"m.s-1","parameterCategory":1,"la1":30.2991,"la2":30.254,"lo1":-89.0895,"lo2":-89.0444,"dy":0.0017,"dx":0.0017,"nx":28,"ny":28,"refTime":"2024-11-24T03:00:00:Z","depth":0,"parameterNumber":2,"parameterNumberName":"U-component_of_WINDS"},"data":[0,0,0,0,0,0,0,0,0,0,0,0,0,0,0,0,0,0,0,0,0,0,0,0,0,0,0,0,0,0,0,0,0,0,0,0,0,0,0,0,0,0,0,0,0,0,0,0,0,0,0,0,0,0,0,0,0,0,0.6076,0.6076,0,0.6137,0.6138,0.6139,0.6177,0.6178,0.6178,0.6178,0.6241,0.6242,0.6244,0,0,0,0,0,0,0,0,0,0,0,0,0,0.5991,0.5992,0.6075,0.6076,0.6077,0.6137,0.6138,0.6139,0.6177,0.6178,0.6178,0.6178,0.6241,0.6242,0.6244,0,0,0,0,0,0,0,0,0,0,0,0,0,0.6038,0.5993,0.6075,0.6103,0.6107,0.6137,0.6138,0.6139,0.6177,0.6178,0.6178,0.6178,0.624,0.6242,0.6244,0.6251,0,0,0.6251,0.6252,0,0,0,0,0,0,0,0,0.6035,0.6041,0.6099,0.6102,0.6105,0.615,0.6131,0.6177,0.6177,0.615,0.6178,0.6178,0.621,0.6215,0.6226,0.6254,0.6257,0.6251,0.6253,0.6254,0.6254,0,0,0,0,0,0,0,0.6032,0.6038,0.61,0.6099,0.6103,0.6113,0.612,0.614,0.6178,0.6153,0.6156,0.6163,0.6212,0.6224,0.6228,0.6258,0.6251,0.6253,0.6254,0.6255,0.6295,0.6295,0,0,0,0,0,0,0.6024,0.6035,0.6098,0.6102,0.607,0.6114,0.6122,0.6135,0.6178,0.6185,0.6162,0.6164,0.622,0.6225,0.623,0.6241,0.6254,0.6256,0.6257,0.6295,0.6295,0.6295,0,0,0,0,0,0,0.6022,0.6029,0.6095,0.6069,0.6079,0.6115,0.613,0.6136,0.6148,0.6185,0.6192,0.6167,0.622,0.6227,0.6246,0.6243,0.6257,0.6259,0.6296,0.6295,0.6295,0.6262,0,0,0,0,0,0,0.6019,0.6028,0.6031,0.6069,0.608,0.611,0.613,0.6137,0.6151,0.6155,0.6191,0.6197,0.6221,0.6242,0.6248,0.6247,0.626,0.6296,0.6295,0.6295,0.6264,0.6261,0.6258,0,0,0,0,0,0.6016,0.602,0.6031,0.6039,0.6084,0.611,0.6116,0.6143,0.6151,0.6154,0.6178,0.6196,0.6243,0.6244,0.6251,0.625,0.6296,0.6296,0.6295,0.6265,0.6261,0.6258,0,0,0,0,0,0,0.598,0.6025,0.6038,0.6054,0.6078,0.6116,0.6121,0.6138,0.616,0.6162,0.6195,0.6203,0.6218,0.6236,0.6236,0.6259,0.6272,0.6272,0.6246,0.6243,0.6241,0.6236,0.6262,0,0,0,0,0,0.5974,0.5991,0.603,0.604,0.6051,0.6084,0.6096,0.6115,0.6141,0.6151,0.6176,0.62,0.6221,0.6233,0.6254,0.6267,0.6275,0.627,0.6267,0.6265,0.6265,0.6273,0.627,0.6293,0.6293,0.6293,0,0,0.5962,0.5988,0.5997,0.6033,0.6054,0.607,0.6092,0.6109,0.6121,0.6153,0.6172,0.6192,0.6221,0.6237,0.6245,0.6253,0.6261,0.6264,0.6262,0.6263,0.6272,0.627,0.6268,0.6292,0.6292,0.6292,0,0,0.5948,0.597,0.598,0.6,0.6031,0.6053,0.6056,0.6092,0.6106,0.6126,0.615,0.6166,0.62,0.622,0.6234,0.6228,0.6245,0.6234,0.6219,0.6227,0.6225,0.6223,0.622,0.6219,0.6234,0.6234,0.6234,0,0.5928,0.5954,0.5984,0.5999,0.6014,0.6044,0.6055,0.6073,0.6109,0.6119,0.6127,0.617,0.6192,0.6213,0.6211,0.6222,0.6226,0.6229,0.6223,0.6222,0.6221,0.6218,0.6217,0.6232,0.6232,0.6232,0.6233,0,0.5928,0.5946,0.5951,0.5985,0.6001,0.6014,0.6045,0.6058,0.6075,0.6096,0.6116,0.6144,0.617,0.6177,0.6194,0.62,0.6203,0.6217,0.623,0.6216,0.6215,0.6214,0.623,0.623,0.6231,0.6231,0,0,0.5892,0.5943,0.5944,0.5959,0.5996,0.601,0.6025,0.6051,0.6061,0.6085,0.6097,0.6126,0.6138,0.6155,0.6175,0.6181,0.6174,0.6194,0.6195,0.6189,0.6181,0.617,0.6169,0.6186,0.6186,0.6186,0.6178,0,0.5882,0.591,0.5937,0.5954,0.5971,0.6,0.6013,0.6036,0.6057,0.6074,0.6097,0.6116,0.6131,0.6141,0.6149,0.6173,0.6173,0.6174,0.6198,0.6198,0.6188,0.6168,0.6156,0.6148,0.6178,0.6178,0.6178,0,0.5875,0.5897,0.5916,0.5951,0.5959,0.597,0.5996,0.6012,0.604,0.6054,0.6073,0.6094,0.6111,0.6123,0.6146,0.6146,0.6158,0.6171,0.6172,0.6174,0.6186,0.6169,0.6146,0.6144,0.6177,0.6177,0.6177,0,0.5845,0.5881,0.5896,0.5909,0.5951,0.5957,0.5975,0.6003,0.6017,0.604,0.6049,0.6074,0.6087,0.6106,0.6133,0.614,0.6153,0.6168,0.6165,0.6165,0.6166,0.6165,0.6144,0.6175,0.6175,0.6175,0.6175,0,0.5831,0.5841,0.5884,0.5893,0.5906,0.5937,0.5949,0.5969,0.5994,0.6008,0.6035,0.6048,0.6084,0.6101,0.6122,0.6138,0.6144,0.6156,0.6161,0.6153,0.6151,0.616,0.6161,0.6175,0.6175,0.6175,0.6175,0,0.5799,0.5828,0.5848,0.5885,0.5895,0.5903,0.5935,0.5946,0.5968,0.5985,0.5991,0.6026,0.6047,0.6077,0.6108,0.6122,0.6134,0.6144,0.6125,0.6128,0.6123,0.6123,0.6106,0.6105,0.6137,0.6137,0.6137,0,0.5788,0.5796,0.5835,0.5846,0.5863,0.5881,0.5896,0.5927,0.5941,0.5973,0.598,0.6004,0.6024,0.6057,0.6085,0.6108,0.6118,0.611,0.6121,0.6112,0.6116,0.6115,0.6116,0.6107,0.6106,0.6106,0.6106,0,0.5764,0.5778,0.5797,0.5822,0.5839,0.586,0.5882,0.589,0.5926,0.594,0.5962,0.5978,0.601,0.6032,0.606,0.6078,0.6098,0.6102,0.6103,0.6093,0.6081,0.6087,0.6116,0.6102,0.6102,0.6103,0.6103,0.6103,0.5741,0.575,0.5779,0.58,0.582,0.584,0.5852,0.5876,0.5895,0.5922,0.594,0.5961,0.5989,0.6028,0.6045,0.6063,0.607,0.6071,0.6071,0.6071,0.6067,0.608,0.6068,0.6068,0.6068,0.6068,0.6068,0,0.5718,0.5738,0.5757,0.5787,0.5804,0.5821,0.5847,0.5859,0.5878,0.5902,0.5922,0.5947,0.597,0.6,0.6024,0.6032,0.6042,0.6037,0.6036,0.604,0.6059,0.6056,0.6029,0.6029,0.6029,0.6029,0.6029,0.6029,0.5707,0.5723,0.574,0.5766,0.5787,0.5807,0.5821,0.5839,0.5859,0.5886,0.5905,0.5924,0.5951,0.5978,0.5999,0.6008,0.6015,0.6008,0.6018,0.6036,0.6039,0.6042,0.6039,0.6009,0.6009,0.5998,0.5998,0.5998]},{"header":{"parameterUnit":"m.s-1","parameterCategory":1,"la1":30.2991,"la2":30.254,"lo1":-89.0895,"lo2":-89.0444,"dy":0.0017,"dx":0.0017,"nx":28,"ny":28,"refTime":"2024-11-24T03:00:00:Z","depth":0,"parameterNumber":3,"parameterNumberName":"V-component_of_WINDS"},"data":[0,0,0,0,0,0,0,0,0,0,0,0,0,0,0,0,0,0,0,0,0,0,0,0,0,0,0,0,0,0,0,0,0,0,0,0,0,0,0,0,0,0,0,0,0,0,0,0,0,0,0,0,0,0,0,0,0,0,0.4496,0.4495,0,0.4434,0.4433,0.4433,0.4428,0.4428,0.4429,0.443,0.4364,0.4362,0.4359,0,0,0,0,0,0,0,0,0,0,0,0,0,0.4608,0.4606,0.4496,0.4495,0.4494,0.4434,0.4433,0.4432,0.4428,0.4428,0.4429,0.443,0.4365,0.4362,0.4359,0,0,0,0,0,0,0,0,0,0,0,0,0,0.4554,0.4605,0.4496,0.4485,0.4483,0.4434,0.4433,0.4432,0.4427,0.4428,0.4429,0.443,0.4366,0.4362,0.4359,0.4316,0,0,0.4348,0.4346,0,0,0,0,0,0,0,0,0.4557,0.455,0.4487,0.4485,0.4484,0.444,0.4449,0.4393,0.4427,0.4448,0.443,0.4431,0.4388,0.4383,0.4369,0.4313,0.431,0.4347,0.4345,0.4344,0.4343,0,0,0,0,0,0,0,0.456,0.4552,0.4471,0.4486,0.4484,0.4482,0.4475,0.4438,0.4413,0.4447,0.4446,0.4439,0.4387,0.4372,0.4367,0.4309,0.4348,0.4344,0.4342,0.4341,0.4215,0.4214,0,0,0,0,0,0,0.4567,0.4555,0.4473,0.447,0.4523,0.4479,0.4472,0.4453,0.4414,0.4409,0.4438,0.4439,0.4378,0.4372,0.4365,0.4312,0.4344,0.434,0.4338,0.4216,0.4215,0.4214,0,0,0,0,0,0,0.4569,0.4559,0.4476,0.4512,0.4502,0.4476,0.4455,0.4451,0.4436,0.4407,0.4403,0.4428,0.4379,0.437,0.4328,0.431,0.4339,0.4336,0.4218,0.4216,0.4214,0.4207,0,0,0,0,0,0,0.4572,0.456,0.4544,0.4512,0.45,0.4441,0.4454,0.4449,0.443,0.4431,0.4396,0.4391,0.4379,0.4334,0.4325,0.4305,0.4333,0.4219,0.4217,0.4215,0.4208,0.4205,0.4202,0,0,0,0,0,0.4576,0.4544,0.4544,0.4534,0.4479,0.444,0.4433,0.4419,0.4429,0.4412,0.4394,0.4392,0.4314,0.433,0.432,0.4299,0.422,0.4218,0.4215,0.421,0.4205,0.4202,0,0,0,0,0,0,0.4574,0.454,0.4539,0.4496,0.4471,0.4439,0.4418,0.4415,0.4387,0.4388,0.4372,0.4365,0.4323,0.4307,0.4325,0.4255,0.4268,0.4263,0.4267,0.4263,0.426,0.4264,0.433,0,0,0,0,0,0.4569,0.4541,0.4512,0.4476,0.4464,0.4443,0.4426,0.4418,0.4391,0.438,0.4359,0.4332,0.4302,0.4282,0.4252,0.4206,0.4198,0.4187,0.4184,0.4181,0.4177,0.4151,0.4145,0.4205,0.4205,0.4205,0,0,0.4558,0.4535,0.4518,0.4476,0.4455,0.4426,0.4434,0.4402,0.438,0.4375,0.4334,0.4318,0.4287,0.4244,0.4223,0.4229,0.4159,0.4178,0.4176,0.4173,0.4147,0.4142,0.4137,0.4203,0.4203,0.4204,0,0,0.4521,0.4502,0.447,0.445,0.4419,0.4406,0.4398,0.4367,0.4356,0.4315,0.4311,0.4283,0.4231,0.4209,0.4191,0.4147,0.4144,0.4138,0.412,0.4095,0.409,0.4086,0.4069,0.4063,0.4134,0.4134,0.4134,0,0.451,0.4466,0.4454,0.4422,0.4403,0.4398,0.4365,0.4346,0.4307,0.4294,0.4301,0.4235,0.4214,0.4164,0.4154,0.414,0.413,0.4141,0.4092,0.4087,0.4083,0.4067,0.4061,0.4133,0.4133,0.4133,0.4133,0,0.4453,0.4423,0.44,0.4364,0.4343,0.431,0.4292,0.4272,0.4266,0.4252,0.421,0.4185,0.4149,0.4137,0.4131,0.4087,0.4091,0.4095,0.4107,0.4077,0.4061,0.4055,0.4132,0.4132,0.4132,0.4133,0,0,0.4413,0.4371,0.4363,0.4346,0.4312,0.4288,0.4255,0.4222,0.4204,0.4178,0.4149,0.4105,0.4108,0.4088,0.4079,0.4057,0.4023,0.4064,0.4063,0.4056,0.3972,0.3968,0.3961,0.4021,0.402,0.4019,0.3974,0,0.4372,0.4314,0.4303,0.4252,0.4223,0.4219,0.419,0.4166,0.4152,0.4124,0.4108,0.4077,0.4084,0.4072,0.405,0.4032,0.4005,0.4035,0.3994,0.3992,0.4,0.3953,0.395,0.3908,0.3968,0.3967,0.3966,0,0.4316,0.4289,0.4236,0.4206,0.4194,0.4168,0.4136,0.4111,0.4083,0.4074,0.4052,0.4045,0.401,0.4025,0.3976,0.3996,0.3979,0.3967,0.3965,0.396,0.3977,0.3946,0.3895,0.3888,0.3957,0.3957,0.3958,0,0.4291,0.4241,0.4203,0.4189,0.4153,0.4136,0.412,0.4093,0.4074,0.4046,0.4033,0.4001,0.3983,0.3958,0.3943,0.3955,0.3895,0.3908,0.3885,0.3885,0.3872,0.3873,0.3816,0.3862,0.3862,0.3863,0.3863,0,0.4245,0.4213,0.4191,0.4168,0.4131,0.4118,0.4081,0.4066,0.4042,0.4015,0.4009,0.3983,0.3965,0.3937,0.3925,0.3885,0.3878,0.3869,0.3866,0.3868,0.3869,0.3856,0.3858,0.3861,0.3861,0.3862,0.3862,0,0.421,0.4195,0.4153,0.4123,0.4115,0.4089,0.4063,0.4039,0.4025,0.3991,0.3982,0.3959,0.3925,0.3908,0.3866,0.3857,0.3813,0.3812,0.3822,0.3821,0.3799,0.3801,0.373,0.372,0.3774,0.3774,0.3774,0,0.4182,0.4157,0.4125,0.4107,0.4091,0.4061,0.4041,0.4027,0.4007,0.3974,0.3954,0.392,0.3892,0.3838,0.3817,0.3785,0.3782,0.376,0.3777,0.3781,0.3781,0.3782,0.3779,0.3757,0.3756,0.3756,0.3755,0,0.4133,0.4126,0.4099,0.4068,0.4045,0.402,0.3995,0.398,0.3962,0.3939,0.3905,0.3883,0.384,0.3806,0.3772,0.3755,0.3752,0.375,0.3743,0.3745,0.3752,0.3747,0.3813,0.3752,0.3752,0.3752,0.3753,0.3753,0.4099,0.4077,0.4051,0.402,0.4,0.3977,0.3953,0.3937,0.3908,0.3873,0.3866,0.383,0.3802,0.3756,0.3738,0.3709,0.3714,0.3703,0.37,0.3698,0.3696,0.3758,0.3703,0.3703,0.3703,0.3703,0.3703,0,0.4049,0.4032,0.4004,0.397,0.3945,0.3946,0.3918,0.3897,0.3866,0.3841,0.3814,0.3774,0.3742,0.3719,0.3685,0.3666,0.3663,0.3657,0.3658,0.3654,0.3695,0.3704,0.366,0.366,0.366,0.366,0.366,0.366,0.402,0.3981,0.3972,0.3923,0.3907,0.3872,0.3856,0.3834,0.3815,0.3771,0.3744,0.373,0.3705,0.367,0.3639,0.3634,0.3621,0.3615,0.3608,0.3647,0.3651,0.3655,0.3664,0.3612,0.3612,0.357,0.357,0.3569]}]]